Regional Weather Roundup
Issued by NWS Green Bay, WI

Home | Current Version | Previous Version | Graphics & Text | Print | Product List | Glossary Off
Versions: 1 2 3 4 5 6 7 8 9 10 11 12 13 14 15 16 17 18 19 20 21 22 23 24 25 26 27 28 29 30 31 32 33 34 35 36 37 38 39 40 41 42 43 44 45 46 47 48 49 50

000
ASUS43 KGRB 020959
RWRGRB

NORTH-CENTRAL AND NORTHEAST WISCONSIN REGIONAL WEATHER ROUNDUP
NATIONAL WEATHER SERVICE GREEN BAY WI
500 AM CDT TUE SEP 02 2014

WIZ005-009-010>012-018-019-021100-
NORTH CENTRAL WISCONSIN

CITY           SKY/WX    TMP DP  RH WIND       PRES   REMARKS
IRONWOOD       NOT AVBL
MANITOWISH WTR NOT AVBL
ARBOR VITAE    NOT AVBL
EAGLE RIVER    NOT AVBL
LAND O LAKES   NOT AVBL
RHINELANDER    CLEAR     52  51  97 W6        29.83S
PHILLIPS       NOT AVBL
ANTIGO         NOT AVBL
TOMAHAWK       NOT AVBL
MERRILL        NOT AVBL
$$

WIZ013-073-021100-
NORTHEAST WISCONSIN

CITY           SKY/WX    TMP DP  RH WIND       PRES   REMARKS
IRON MOUNTAIN  CLEAR     52  50  93 CALM      29.79S
MARINETTE      CLEAR     55  52  88 W5        29.81R
$$

WIZ017-030-035>037-045-021100-
CENTRAL WISCONSIN

CITY           SKY/WX    TMP DP  RH WIND       PRES   REMARKS
MEDFORD        NOT AVBL
WAUSAU         CLEAR     54  53  97 CALM      29.83R
MOSINEE        NOT AVBL
MARSHFIELD     CLEAR     55  54  96 CALM      29.85R
WISC RAPIDS    FOG       54  53  97 CALM      29.86R VSB 3/4
STEVENS POINT  NOT AVBL
WAUPACA        NOT AVBL
SHAWANO        CLEAR     55  53  93 CALM      29.84S FOG
CLINTONVILLE   NOT AVBL
$$

WIZ038-039-048-051-021100-
FOX VALLEY

CITY           SKY/WX    TMP DP  RH WIND       PRES   REMARKS
NWS GREEN BAY  CLEAR     54  54 100 S5        29.83S
APPLETON       NOT AVBL
OSHKOSH        CLEAR     61  59  93 SW5       29.85R
FOND DU LAC    CLEAR     59  57  93 SW3       29.86S
$$

WIZ022-050-052-021100-
EAST CENTRAL WISCONSIN

CITY           SKY/WX    TMP DP  RH WIND       PRES   REMARKS
STURGEON BAY   CLEAR     59  55  88 W6        29.83R
MANITOWOC      NOT AVBL
SHEBOYGAN      CLEAR     57  56  96 SW3       29.85S FOG
$$

LMZ563-521-522-541>543-021100-
LAKESHORE

STATION/POSITION TIME  TEMP    WIND        PRES    VSBY  WAVE
                       AIR SEA DIR/SP/G                  HT/PER
                 (UTC) (F)     (DEG/KT/KT) (MB)    (MI)  (FT/S)
SHEBOYGAN LKSHOR 0900   63 50  260/  8/  9 1010.7R
KEWAUNEE LKSHORE 0900   59     280/  4/  6 1009.1R
NORTHPORT PIER   0900   62     260/  2/  5 1008.8R
N MID LAKE BUOY  0900   65 65  250/  8/ 10 1007.9F         2/ 6
S GREEN BAY BUOY 0900   65     VRB 12/ 16  1010.6S
CHAMBERS ISLAND  0900   62     220/  4/  9 1009.5R
MENOMINEE LKSHOR 0900   60     250/  8/  9 1009.7S
$$


USA.gov is the U.S. government's official web portal to all federal, state and local government web resources and services.